Tracking 33744 objects as of 14-Apr-2026
HD Live streaming from Space Station
objects crossing your sky now

STARLINK-36790

Track STARLINK-36790 now!
10-day predictions
STARLINK-36790 is classified as:


NORAD ID: 68095
Int'l Code: 2026-042AC
Perigee: 350.4 km
Apogee: 351.7 km
Inclination: 53.2 °
Period: 91.4 minutes
Semi major axis: 6722 km
RCS: Unknown
Launch date: March 4, 2026
Source: United States (US)
Launch site: AIR FORCE EASTERN TEST RANGE (AFETR)
Your satellite tracking list
Your tracking list is empty




NASA's NSSDC Master Catalog

Two Line Element Set (TLE):
1 68095U 26042AC  26104.21816747  .00134431  00000-0  86695-3 0  9994
2 68095  53.1593  17.3661 0000964 115.8444 244.2676 15.75246999  7685
Source of the keplerian elements: AFSPC